FW0232 Weather Reports


time (UTC)temp
C
wind
direction
speed
KPH
gust
KPH
rain 1hr
cm
rain 24hr
cm
rain mn
cm
humidity
%
barometer
mb
20260503200003 30 347 3.2 9.7 0.00 0.00 0.00 46 1007.3
20260503195403 30 14 3.2 11.3 0.00 0.00 0.00 45 1007.4
20260503194503 30 326 4.8 11.3 0.00 0.00 0.00 42 1007.5
20260503193813 29 353 4.8 11.3 0.00 0.00 0.00 41 1007.6
20260503192703 28 9 3.2 11.3 0.00 0.00 0.00 44 1007.7
20260503191803 28 76 4.8 11.3 0.00 0.00 0.00 44 1007.8
20260503190903 28 75 3.2 11.3 0.00 0.00 0.00 49 1007.9
20260503190213 27 7 1.6 9.7 0.00 0.00 0.00 52 1007.9
20260503185403 27 339 1.6 9.7 0.00 0.00 0.00 47 1008.1
20260503184503 27 333 3.2 9.7 0.00 0.00 0.00 47 1008.2
20260503183813 26 360 4.8 9.7 0.00 0.00 0.00 51 1008.3
20260503182704 26 319 3.2 11.3 0.00 0.00 0.00 53 1008.4
20260503181803 26 48 3.2 9.7 0.00 0.00 0.00 54 1008.5
20260503180903 25 11 3.2 11.3 0.00 0.00 0.00 59 1008.6
20260503180214 25 357 3.2 9.7 0.00 0.00 0.00 55 1008.7
20260503175403 25 345 1.6 6.4 0.00 0.00 0.00 60 1008.8
20260503174503 24 345 1.6 6.4 0.00 0.00 0.00 59 1008.8
20260503173813 24 351 1.6 6.4 0.00 0.00 0.00 59 1008.9
20260503172703 23 6 1.6 9.7 0.00 0.00 0.00 62 1008.9
20260503171803 23 335 3.2 11.3 0.00 0.00 0.00 64 1009.0
20260503170903 22 331 1.6 11.3 0.00 0.00 0.00 63 1009.0
20260503150903 13 0 0.0 0.0 0.00 0.00 0.00 97 1009.6
20260503130903 9 0 0.0 0.0 0.00 0.00 0.00 95 1009.1
20260503080903 12 0 0.0 0.0 0.00 0.00 0.00 92 1009.9
20260503072703 12 0 0.0 0.0 0.00 0.00 0.00 92 1009.9
20260503072013 12 0 0.0 0.0 0.00 0.00 0.00 92 1009.9
20260503070903 12 0 0.0 0.0 0.00 0.00 0.00 92 1009.8
20260503054503 14 0 0.0 0.0 0.00 0.00 0.00 89 1010.0
20260503053603 14 0 0.0 0.0 0.00 0.00 0.00 88 1009.8
20260503052703 14 0 0.0 0.0 0.00 0.00 0.00 88 1009.7
20260503051803 14 0 0.0 0.0 0.00 0.00 0.00 87 1009.8
20260503050903 15 0 0.0 0.0 0.00 0.00 0.00 87 1009.9
20260503050003 15 0 0.0 0.0 0.00 0.00 0.00 87 1009.8
20260503045403 15 0 0.0 0.0 0.00 0.00 0.00 86 1010.2
20260503044503 15 0 0.0 0.0 0.00 0.00 0.00 85 1010.0
20260503043603 15 0 0.0 0.0 0.00 0.00 0.00 85 1009.7
20260503042703 15 0 0.0 0.0 0.00 0.00 0.00 85 1009.6
20260503041803 16 0 0.0 0.0 0.00 0.00 0.00 84 1009.7
20260503040903 16 0 0.0 0.0 0.00 0.00 0.00 83 1009.8
20260503040003 16 0 0.0 0.0 0.00 0.00 0.00 82 1010.0
20260503035403 16 0 0.0 0.0 0.00 0.00 0.00 81 1009.9
20260503034503 16 0 0.0 0.0 0.00 0.00 0.00 80 1009.8
20260503033603 17 0 0.0 0.0 0.00 0.00 0.00 80 1009.7
20260503032703 17 75 1.6 4.8 0.00 0.00 0.00 79 1009.5
20260503031803 17 75 1.6 6.4 0.00 0.00 0.00 78 1009.4
20260503030903 17 75 1.6 4.8 0.00 0.00 0.00 78 1009.4
20260503030004 17 93 1.6 6.4 0.00 0.00 0.00 77 1009.2
20260503025403 18 123 3.2 6.4 0.00 0.00 0.00 77 1009.5
20260503024503 18 177 9.7 16.1 0.00 0.00 0.00 76 1009.4
20260503023813 18 183 11.3 24.1 0.00 0.00 0.00 76 1009.5
20260503022703 18 180 12.9 25.7 0.00 0.00 0.00 75 1009.6
20260503021803 18 179 12.9 30.6 0.00 0.00 0.00 75 1009.7
20260503020903 18 177 12.9 29.0 0.00 0.00 0.00 75 1009.8
20260503020214 19 176 9.7 32.2 0.00 0.00 0.00 74 1009.8
20260503015403 20 177 6.4 17.7 0.00 0.00 0.00 71 1009.3
20260503014503 20 175 6.4 14.5 0.00 0.00 0.00 72 1009.0
20260503013603 20 172 6.4 12.9 0.00 0.00 0.00 71 1008.9
20260503012703 20 175 6.4 12.9 0.00 0.00 0.00 70 1008.8
20260503011803 20 173 4.8 12.9 0.00 0.00 0.00 70 1008.9
20260503010903 21 180 1.6 12.9 0.00 0.00 0.00 69 1008.8
20260503010003 21 275 1.6 6.4 0.00 0.00 0.00 70 1008.8
20260503005403 21 284 1.6 6.4 0.00 0.00 0.00 69 1008.7
20260503004503 21 267 1.6 4.8 0.00 0.00 0.00 69 1008.7
20260503003603 21 218 3.2 8.0 0.00 0.00 0.00 69 1008.7
20260503002703 21 244 3.2 12.9 0.00 0.00 0.00 69 1008.8
20260503001803 21 258 4.8 12.9 0.00 0.00 0.00 68 1008.8
20260503000903 21 287 4.8 12.9 0.00 0.00 0.00 68 1008.8
20260503000003 21 268 3.2 11.3 0.00 0.00 0.00 68 1008.9
20260502235613 21 272 3.2 9.7 0.00 0.00 0.00 68 1008.8
20260502234503 21 237 3.2 6.4 0.00 0.00 0.00 65 1008.9
20260502233603 21 256 1.6 6.4 0.00 0.00 0.00 65 1009.1
20260502232703 21 230 3.2 9.7 0.00 0.00 0.00 65 1009.2
20260502231803 21 191 3.2 8.0 0.00 0.00 0.00 66 1009.4
20260502231114 21 222 3.2 6.4 0.00 0.00 0.00 64 1009.4
20260502230003 21 217 3.2 4.8 0.00 0.00 0.00 66 1009.5
20260502225403 21 235 3.2 11.3 0.00 0.00 0.00 64 1009.6
20260502224503 21 325 1.6 12.9 0.00 0.00 0.00 65 1009.8
20260502223814 21 345 1.6 6.4 0.00 0.00 0.00 67 1009.9
20260502222703 20 279 3.2 8.0 0.00 0.00 0.00 67 1010.1
20260502221803 21 350 3.2 8.0 0.00 0.00 0.00 67 1010.3
20260502220903 20 28 3.2 8.0 0.00 0.00 0.00 67 1010.4
20260502220003 19 74 1.6 9.7 0.00 0.00 0.00 69 1010.5
20260502215403 19 78 0.0 9.7 0.00 0.00 0.00 68 1010.6
20260502214714 19 175 3.2 4.8 0.00 0.00 0.00 72 1010.7
20260502213603 18 158 3.2 6.4 0.00 0.00 0.00 69 1010.9
20260502212703 18 132 3.2 9.7 0.00 0.00 0.00 72 1011.0
20260502211803 18 258 3.2 8.0 0.00 0.00 0.00 73 1011.1
20260502210903 17 227 3.2 9.7 0.00 0.00 0.00 73 1011.3
20260502210003 17 314 3.2 8.0 0.00 0.00 0.00 74 1011.5
20260502205614 17 310 3.2 8.0 0.00 0.00 0.00 76 1011.5
20260502204503 16 243 3.2 4.8 0.00 0.00 0.00 74 1011.7
20260502203603 16 209 4.8 8.0 0.00 0.00 0.00 77 1011.9
20260502202703 15 192 3.2 9.7 0.00 0.00 0.00 78 1012.1
20260502201803 16 234 3.2 11.3 0.00 0.00 0.00 79 1012.1
20260502200903 15 164 3.2 11.3 0.00 0.00 0.00 79 1012.2